Simultaneous Nadir Overpasses (SNOs) Predictions

Prediction of SNOs between GOES-17 and NOAA-19 Satellite Orbit:

Table of predicted SNOs for the next 14.0 days since TLE Epoch: 7/29/2023
Index Date Time (GOES-17) GOES-17 Lat,Lon NOAA-19 Lat,Lon Distance(km) Time Diff (sec)
1 07/31/2023 03:53:58 -0.00,-104.69 -0.70,-107.79 353.12 80
2 08/01/2023 03:41:54 0.00,-104.68 -0.02,-104.85 18.64 80
3 08/02/2023 03:27:11 0.00,-104.68 0.66,-101.91 316.13 80
4 08/04/2023 15:47:04 0.00,-104.71 0.47,-106.63 219.65 80
5 08/05/2023 15:37:40 0.00,-104.71 -0.22,-103.70 115.65 80
6 08/06/2023 15:25:37 0.00,-104.71 -0.92,-100.76 450.99 80
7 08/08/2023 03:57:52 0.00,-104.68 -0.89,-108.49 435.55 80
8 08/09/2023 03:45:49 0.00,-104.68 -0.20,-105.56 100.45 80
9 08/10/2023 03:31:05 0.00,-104.68 0.50,-102.63 234.62 80
